When you browse on this site, cookies collect data to enhance your experience and personalize the content and advertising you see.
Visit our Privacy Policy to learn more. By continuing to use the site, you agree to this use of cookies and data.
EN

Hourly Weather Toshkovka

Today, 6 August, Thursday

Time Temperature Precipitation Wind Pressure Humidity
00:00 +22°C° 0 mm 3 mps 753 mmHg 64%
01:00 +21°C° 0 mm 3 mps 753 mmHg 68%
02:00 +21°C° 0 mm 3 mps 753 mmHg 71%
03:00 +20°C° 0 mm 2 mps 754 mmHg 74%
04:00 +20°C° 0 mm 2 mps 754 mmHg 76%
05:00 +20°C° 0 mm 2 mps 754 mmHg 78%
06:00 +20°C° 0 mm 2 mps 754 mmHg 80%
07:00 +24°C° 0 mm 3 mps 754 mmHg 73%
08:00 +26°C° 0 mm 3 mps 754 mmHg 66%
09:00 +28°C° 0 mm 3 mps 755 mmHg 57%
10:00 +30°C° 0 mm 4 mps 755 mmHg 51%
11:00 +33°C° 0 mm 4 mps 755 mmHg 45%
12:00 +34°C° 0 mm 4 mps 755 mmHg 39%
13:00 +35°C° 0 mm 4 mps 754 mmHg 37%
14:00 +36°C° 0 mm 5 mps 754 mmHg 35%
15:00 +36°C° 0 mm 5 mps 754 mmHg 33%
16:00 +36°C° 0 mm 5 mps 754 mmHg 35%
17:00 +35°C° 0 mm 5 mps 754 mmHg 38%
18:00 +34°C° 0 mm 5 mps 754 mmHg 40%
19:00 +33°C° 0 mm 4 mps 754 mmHg 47%
20:00 +30°C° 0 mm 4 mps 755 mmHg 53%
21:00 +28°C° 0 mm 3 mps 755 mmHg 60%
22:00 +27°C° 0 mm 3 mps 755 mmHg 63%
23:00 +26°C° 0 mm 3 mps 755 mmHg 67%

Tomorrow, 7 August, Friday

Time Temperature Precipitation Wind Pressure Humidity
00:00 +25°C° 0 mm 3 mps 755 mmHg 70%
01:00 +25°C° 0 mm 3 mps 755 mmHg 73%
02:00 +24°C° 0 mm 3 mps 755 mmHg 76%
03:00 +24°C° 0 mm 3 mps 755 mmHg 78%
04:00 +22°C° 0 mm 3 mps 755 mmHg 79%
05:00 +22°C° 0 mm 3 mps 755 mmHg 80%
06:00 +22°C° 0 mm 3 mps 755 mmHg 80%
07:00 +25°C° 0 mm 3 mps 755 mmHg 73%
08:00 +27°C° 0 mm 4 mps 755 mmHg 66%
09:00 +29°C° 0 mm 4 mps 755 mmHg 59%
10:00 +30°C° 0 mm 4 mps 755 mmHg 52%
11:00 +32°C° 0 mm 4 mps 755 mmHg 45%
12:00 +34°C° 0 mm 5 mps 755 mmHg 39%
13:00 +34°C° 0 mm 5 mps 755 mmHg 36%
14:00 +35°C° 0 mm 5 mps 755 mmHg 34%
15:00 +35°C° 0 mm 5 mps 754 mmHg 31%
16:00 +34°C° 0 mm 5 mps 754 mmHg 32%
17:00 +34°C° 0 mm 5 mps 754 mmHg 33%
18:00 +33°C° 0 mm 5 mps 754 mmHg 35%
19:00 +30°C° 0 mm 4 mps 754 mmHg 41%
20:00 +28°C° 0 mm 4 mps 754 mmHg 48%
21:00 +26°C° 0 mm 3 mps 754 mmHg 55%
22:00 +25°C° 0 mm 3 mps 754 mmHg 61%
23:00 +25°C° 0 mm 3 mps 754 mmHg 67%

Day after tomorrow, 8 August, Saturday

Time Temperature Precipitation Wind Pressure Humidity
00:00 +23°C° 0 mm 4 mps 754 mmHg 74%
01:00 +22°C° 0 mm 4 mps 754 mmHg 77%
02:00 +22°C° 0 mm 3 mps 754 mmHg 80%
03:00 +21°C° 0 mm 3 mps 753 mmHg 83%
04:00 +21°C° 0 mm 4 mps 753 mmHg 82%
05:00 +21°C° 0 mm 4 mps 753 mmHg 82%
06:00 +20°C° 0 mm 4 mps 754 mmHg 81%
07:00 +22°C° 0 mm 4 mps 754 mmHg 73%
08:00 +23°C° 0 mm 5 mps 754 mmHg 66%
09:00 +26°C° 0 mm 5 mps 754 mmHg 58%
10:00 +27°C° 0 mm 6 mps 754 mmHg 52%
11:00 +28°C° 0 mm 6 mps 753 mmHg 46%
12:00 +29°C° 0 mm 6 mps 753 mmHg 39%
13:00 +30°C° 0 mm 6 mps 753 mmHg 38%
14:00 +30°C° 0 mm 6 mps 753 mmHg 38%
15:00 +30°C° 0 mm 6 mps 752 mmHg 37%
16:00 +30°C° 0 mm 6 mps 752 mmHg 37%
17:00 +29°C° 0 mm 6 mps 752 mmHg 38%
18:00 +29°C° 0 mm 6 mps 752 mmHg 38%
19:00 +27°C° 0 mm 5 mps 752 mmHg 42%
20:00 +25°C° 0 mm 5 mps 752 mmHg 46%
21:00 +22°C° 0 mm 4 mps 752 mmHg 51%
22:00 +21°C° 0 mm 4 mps 752 mmHg 54%
23:00 +20°C° 0 mm 3 mps 752 mmHg 58%

9 August, Sunday

Time Temperature Precipitation Wind Pressure Humidity
00:00 +19°C° 0 mm 3 mps 752 mmHg 62%
01:00 +19°C° 0 mm 3 mps 752 mmHg 64%
02:00 +18°C° 0 mm 3 mps 752 mmHg 67%
03:00 +17°C° 0 mm 3 mps 752 mmHg 70%
04:00 +17°C° 0 mm 3 mps 752 mmHg 71%
05:00 +17°C° 0 mm 3 mps 752 mmHg 71%
06:00 +17°C° 0 mm 3 mps 752 mmHg 72%
07:00 +19°C° 0 mm 4 mps 752 mmHg 64%
08:00 +21°C° 0 mm 4 mps 752 mmHg 56%
09:00 +23°C° 0 mm 5 mps 752 mmHg 47%
10:00 +26°C° 0 mm 5 mps 752 mmHg 44%
11:00 +27°C° 0 mm 5 mps 752 mmHg 40%
12:00 +28°C° 0 mm 5 mps 752 mmHg 36%
13:00 +29°C° 0 mm 5 mps 752 mmHg 36%
14:00 +29°C° 0 mm 5 mps 751 mmHg 36%
15:00 +29°C° 0 mm 5 mps 751 mmHg 35%
16:00 +29°C° 0 mm 5 mps 751 mmHg 36%
17:00 +28°C° 0 mm 5 mps 751 mmHg 37%
18:00 +28°C° 0 mm 5 mps 751 mmHg 38%
19:00 +26°C° 0 mm 4 mps 751 mmHg 43%
20:00 +24°C° 0 mm 3 mps 751 mmHg 48%
21:00 +23°C° 0 mm 2 mps 751 mmHg 53%
22:00 +21°C° 0 mm 2 mps 751 mmHg 56%
23:00 +20°C° 0 mm 2 mps 751 mmHg 59%

10 August, Monday

Time Temperature Precipitation Wind Pressure Humidity
00:00 +20°C° 0 mm 2 mps 752 mmHg 62%
01:00 +19°C° 0 mm 2 mps 751 mmHg 65%
02:00 +19°C° 0 mm 2 mps 751 mmHg 67%
03:00 +18°C° 0 mm 2 mps 751 mmHg 70%
04:00 +18°C° 0 mm 2 mps 751 mmHg 71%
05:00 +18°C° 0 mm 2 mps 752 mmHg 72%
06:00 +19°C° 0 mm 1 mps 752 mmHg 73%
07:00 +20°C° 0 mm 2 mps 752 mmHg 65%
08:00 +23°C° 0 mm 2 mps 752 mmHg 57%
09:00 +26°C° 0 mm 3 mps 752 mmHg 49%
10:00 +27°C° 0 mm 3 mps 752 mmHg 44%
11:00 +28°C° 0 mm 3 mps 752 mmHg 39%
12:00 +30°C° 0 mm 4 mps 752 mmHg 34%
13:00 +30°C° 0 mm 4 mps 751 mmHg 33%
14:00 +32°C° 0 mm 4 mps 751 mmHg 33%
15:00 +32°C° 0 mm 4 mps 751 mmHg 32%
16:00 +32°C° 0 mm 4 mps 751 mmHg 34%
17:00 +30°C° 0 mm 4 mps 751 mmHg 37%
18:00 +29°C° 0 mm 4 mps 751 mmHg 39%
19:00 +28°C° 0 mm 3 mps 751 mmHg 46%
20:00 +26°C° 0 mm 3 mps 751 mmHg 53%
21:00 +24°C° 0 mm 2 mps 751 mmHg 60%
22:00 +23°C° 0 mm 2 mps 751 mmHg 64%
23:00 +21°C° 0 mm 2 mps 751 mmHg 67%

11 August, Tuesday

Time Temperature Precipitation Wind Pressure Humidity
00:00 +21°C° 0 mm 1 mps 751 mmHg 71%
01:00 +21°C° 0 mm 1 mps 752 mmHg 72%
02:00 +20°C° 0 mm 1 mps 752 mmHg 73%
03:00 +20°C° 0 mm 1 mps 752 mmHg 75%
04:00 +20°C° 0 mm 1 mps 752 mmHg 75%
05:00 +20°C° 0 mm 1 mps 752 mmHg 76%
06:00 +19°C° 0 mm 1 mps 752 mmHg 77%
07:00 +21°C° 0 mm 2 mps 752 mmHg 70%
08:00 +24°C° 0 mm 2 mps 752 mmHg 62%
09:00 +26°C° 0 mm 2 mps 752 mmHg 54%
10:00 +27°C° 0 mm 3 mps 752 mmHg 49%
11:00 +28°C° 0 mm 3 mps 752 mmHg 43%
12:00 +29°C° 0 mm 3 mps 752 mmHg 38%
13:00 +30°C° 0 mm 2 mps 752 mmHg 35%
14:00 +30°C° 0 mm 2 mps 751 mmHg 32%
15:00 +31°C° 0 mm 2 mps 751 mmHg 30%
16:00 +31°C° 0 mm 2 mps 751 mmHg 30%
17:00 +30°C° 0 mm 3 mps 751 mmHg 30%
18:00 +30°C° 0 mm 3 mps 751 mmHg 31%
19:00 +28°C° 0 mm 3 mps 751 mmHg 35%
20:00 +26°C° 0 mm 3 mps 751 mmHg 40%
21:00 +22°C° 0 mm 3 mps 751 mmHg 44%
22:00 +23°C° 0 mm 2 mps 751 mmHg 46%
23:00 +21°C° 0 mm 2 mps 751 mmHg 48%
Show more